www.pogodaiklimat.ru

Погода и климат >> Архив погоды >> Мексика >> Tuxpan


ПОГОДА в Tuxpan

  • Прогноз погоды в Tuxpan
  • Монитор погоды в Tuxpan
  • Климат города

АРХИВ ПОГОДЫ в Tuxpan

Время (UTC), дата Ветер
(напр.,м/с)
 
Видим.   Явления Облачность Т
(С)
Тd
(С)
f
(%)
Тe
(С)
Тes
(С)
Комфортность P
(гПа)
Po
(гПа)
Тmin
(С)
Tmax
(С)
R
(мм)
R24
(мм)
S
(см)
06 8.08 ЮВ 1 1000 м в посл. час гроза 10/8 50 м
[Cb cap As op]
+25.0 +24.4 96 +35 +35 очень
душно
1017.0 1015.9 2
09 8.08 ЮВ 1 1000 м в посл. час гроза 10/8 90 м
[Cb cap As op]
+23.4 +22.8 96 +33 +33 очень
душно
1018.3 1017.2 0.0
12 8.08 штиль 0 1000 м {гроза} ясно +22.8 +22.2 96 +31 +31 очень
душно
1016.9 1015.8 +22.4 +32.8 0.0
15 8.08 ЮВ 1 8000 м гроза без осадков 5/3 120 м
[Cb cap Ac trans]
+25.4 +24.5 95 +36 +42 очень
душно
1018.4 1017.2
18 8.08 ЮВ 1 8000 м 5/4 420 м
[Cu med, cong As trans]
+30.6 +27.3 83 +49 +63 опасность
перегрева
1018.1 1016.9 +22.4 +32.0
21 8.08 ЮВ 1 8000 м 9/5 210 м
[Sc diur, vesp As op]
+30.6 +29.0 91 +53 +56 опасность
перегрева
1016.0 1014.9
00 9.08 ЮВ 1 8000 м 3/3 300 м
[Cu hum]
+31.0 +28.3 86 +52 +53 опасность
перегрева
1014.3 1013.1 +22.4 +34.0
03 9.08 ЮВ 1 1000 м 3/3 120 м
[Cu hum]
+28.2 +27.4 95 +45 +45 опасность
перегрева
1014.8 1013.7
06 9.08 ЮВ 1 1000 м 3/3 120 м
[Cu hum]
+26.8 +26.0 95 +40 +40 очень
душно
1015.3 1014.1 +22.4 +34.0
09 9.08 ЮВ 1 1000 м 4/4 120 м
[Cu hum]
+25.6 +24.7 95 +36 +36 очень
душно
1016.7 1015.6
12 9.08 ЮВ 1 1000 м 3/3 90 м
[Cu hum]
+24.6 +24.0 96 +34 +34 очень
душно
1016.3 1015.1 +24.4 +34.0
15 9.08 ЮЗ 1 8000 м 6/5 300 м
[Cu med, cong Ac trans]
+26.8 +24.5 87 +38 +42 очень
душно
1018.2 1017.0
18 9.08 ЮЗ 1 8000 м 4/4 420 м
[Cu med, cong]
+31.4 +28.2 83 +52 +67 опасность
перегрева
1017.5 1016.4 +23.4 +33.0
21 9.08 ЮВ 1 8000 м гроза без осадков 8/3 240 м
[Cb cap As op]
+30.8 +28.9 90 +54 +59 опасность
перегрева
1017.0 1015.8
00 10.08 ЮВ 1 8000 м слабая морось 9/4 100 м
[Frnb As op]
+29.4 +28.1 93 +49 +49 опасность
перегрева
1016.3 1015.2 0.0
03 10.08 ЮВ 1 1000 м 8/5 150 м
[Cu med, cong As op]
+27.8 +26.7 94 +43 +43 опасность
перегрева
1015.4 1014.2
06 10.08 ЮВ 1 1000 м ясно +26.0 +25.2 95 +37 +37 очень
душно
1014.3 1013.2 +23.4 +34.0
09 10.08 ЮВ 1 1000 м ясно +25.0 +24.4 96 +35 +35 очень
душно
1016.4 1015.3
12 10.08 ЮВ 1 1000 м 5/5 90 м
[Cu med, cong]
+24.0 +23.4 96 +32 +32 очень
душно
1016.3 1015.1 +23.4 +34.0
15 10.08 ЮВ 1 8000 м дымка {туман} 4/1 300 м
[Cu med, cong As trans]
+26.6 +24.3 87 +37 +45 очень
душно
1017.7 1016.5
18 10.08 ЮВ 2 8000 м 4/3 500 м
[Cu med, cong Ac trans]
+31.8 +27.8 79 +51 +65 опасность
перегрева
1016.7 1015.6 +23.4 +33.4
21 10.08 ЮВ 2 8000 м {гроза} 8/6 240 м
[Sc diur, vesp Ac trans]
+29.4 +27.5 90 +48 +52 опасность
перегрева
1015.6 1014.4
00 11.08 ЮВ 2 8000 м 3/1 300 м
[Cu med, cong Ac trans]
+30.6 +27.3 83 +49 +50 опасность
перегрева
1014.7 1013.6 +23.4 +33.4
03 11.08 ЮВ 2 1000 м 6/3 150 м
[Cu med, cong As op]
+28.4 +27.3 94 +45 +45 опасность
перегрева
1015.3 1014.2
06 11.08 штиль 0 1000 м 4/4 60 м
[Cu med, cong]
+27.0 +26.4 97 +41 +41 опасность
перегрева
1015.4 1014.3 +23.4 +33.4
09 11.08 штиль 0 1000 м 5/5 30 м
[Cu med, cong]
+25.8 +25.5 98 +38 +38 очень
душно
1014.1 1013.0
12 11.08 штиль 0 1000 м в посл. час гроза 8/4 30 м
[Cb cap As op]
+25.2 +24.9 98 +36 +36 очень
душно
1013.6 1012.5 +23.8 +33.4
15 11.08 ЮЗ 1 8000 м 9/6 60 м
[Cu med, cong As op]
+25.2 +24.9 98 +36 +37 очень
душно
1017.0 1015.9
18 11.08 ЮВ 1 8000 м 9/5 420 м
[Cu med, cong As op]
+30.4 +27.1 83 +48 +53 опасность
перегрева
1016.3 1015.1 +23.6 +32.0
21 11.08 ЮВ 1 8000 м 8/5 400 м
[Sc diur, vesp As trans]
+31.4 +28.5 85 +53 +59 опасность
перегрева
1014.9 1013.8
00 12.08 ЮВ 1 8000 м 5/5 200 м
[Cu med, cong]
+31.0 +28.6 87 +53 +53 опасность
перегрева
1013.6 1012.4 +23.6 +33.2
03 12.08 штиль 0 1000 м 3/3 150 м
[Cu med, cong]
+29.4 +28.3 94 +50 +50 опасность
перегрева
1013.1 1011.9
06 12.08 штиль 0 1000 м 4/4 120 м
[Cu med, cong]
+28.2 +27.3 95 +45 +45 опасность
перегрева
1015.2 1014.1 +23.6 +33.2
09 12.08 штиль 0 1000 м 3/3 60 м
[Cu med, cong]
+27.0 +26.4 97 +41 +41 опасность
перегрева
1015.5 1014.4
12 12.08 СВ 1 1000 м в посл. час гроза 9/4 <50 м
[Cb cap As op]
+26.4 +26.1 98 +39 +39 очень
душно
1013.7 1012.6 3
15 12.08 СВ 1 8000 м в посл. час гроза 10/5 60 м
[Cb cap As op]
+26.2 +25.9 98 +39 +40 очень
душно
1017.1 1016.0 1
18 12.08 СВ 2 8000 м слабая морось 10/6 50 м
[Frnb As op]
+26.6 +26.3 98 +40 +42 очень
душно
1017.6 1016.5 2
21 12.08 СВ 2 8000 м {морось} 10/6 300 м
[Sc Ac trans]
+29.0 +26.8 88 +45 +48 опасность
перегрева
1015.8 1014.6 0.0
00 13.08 ЮВ 2 8000 м 9/4 200 м
[Sc diur, vesp Ac trans]
+29.0 +26.8 88 +45 +46 опасность
перегрева
1013.9 1012.8 +24.6 +30.8
03 13.08 ЮВ 1 1000 м 6/3 150 м
[Sc As op]
+27.8 +26.7 94 +43 +43 опасность
перегрева
1014.2 1013.1
06 13.08 штиль 0 1000 м 4/4 60 м
[Cu med, cong]
+27.0 +26.4 97 +41 +41 опасность
перегрева
1016.3 1015.2 +24.6 +30.8
09 13.08 штиль 0 1000 м 5/5 30 м
[Cu med, cong]
+26.4 +26.1 98 +39 +39 очень
душно
1015.0 1013.9
12 13.08 штиль 0 1000 м 8/4 30 м
[Cu med, cong As op]
+25.8 +25.5 98 +38 +38 очень
душно
1015.1 1014.0 +24.6 +30.8
15 13.08 ЮЗ 1 8000 м слабая морось 8/4 180 м
[Cu med, cong As op]
+28.0 +26.6 92 +43 +46 опасность
перегрева
1017.6 1016.5 0.1
18 13.08 ЮВ 2 8000 м {морось} 5/3 300 м
[Cu med, cong As trans]
+32.2 +28.7 82 +55 +67 опасность
перегрева
1017.1 1015.9 0.1
21 13.08 ЮВ 2 8000 м 5/3 500 м
[Cu med, cong As trans]
+33.4 +29.4 80 +59 +67 опасность
перегрева
1015.3 1014.2
00 14.08 ЮВ 2 8000 м 5/3 300 м
[Cu med, cong As trans]
+31.6 +28.9 86 +55 +55 опасность
перегрева
1013.8 1012.7 +24.2 +34.8
03 14.08 штиль 0 1000 м 3/3 180 м
[Cu med, cong]
+28.6 +27.2 92 +45 +45 опасность
перегрева
1015.3 1014.2
06 14.08 штиль 0 1000 м {морось} 6/4 100 м
[Cu med, cong As op]
+26.6 +25.8 95 +39 +39 очень
душно
1016.8 1015.7 0.2
09 14.08 штиль 0 1000 м {гроза} 5/3 60 м
[Cu med, cong As trans]
+25.8 +25.5 98 +38 +38 очень
душно
1015.7 1014.6
12 14.08 СЗ 1 1000 м 5/3 60 м
[Sc diur, vesp As trans]
+24.2 +23.9 98 +33 +33 очень
душно
1015.6 1014.4 +23.4 +34.8
15 14.08 ЮЗ 1 8000 м 5/3 270 м
[Cu med, cong Ac trans]
+26.6 +24.8 90 +38 +44 очень
душно
1016.3 1015.1
18 14.08 ЮВ 1 8000 м 5/3 540 м
[Cu med, cong As trans]
+31.4 +27.3 79 +50 +65 опасность
перегрева
1015.8 1014.7 +23.0 +32.8
21 14.08 ЮВ 2 8000 м 4/3 600 м
[Cu med, cong As trans]
+33.2 +28.4 76 +55 +64 опасность
перегрева
1015.2 1014.0
00 15.08 ЮВ 2 8000 м 4/3 300 м
[Cu med, cong As trans]
+31.2 +27.7 82 +51 +51 опасность
перегрева
1013.6 1012.5 +23.0 +34.6
03 15.08 ЮВ 1 1000 м 8/5 180 м
[Cu med, cong As op]
+28.6 +27.2 92 +45 +45 опасность
перегрева
1016.4 1015.3

 

Местоположение метеостанции Tuxpan (Мексика): широта 20.95 долгота -97.40 высота над уровнем моря 28 м.

В архиве по умолчанию представлена погода в Tuxpan за последнюю неделю. Архивные данные за месяц целиком и за предыдущие месяцы, начиная с января 2011 года, Вы можете получить, выбрав интересующий диапазон дат из раскрывающегося списка и нажав кнопку "Ввод!".


*Определитесь, кто Вы:
робот инопланетянин человек

Внимание! Время в таблицах - всемирное. Для получения местного времени необходимо прибавить поправку, которая в Tuxpan равна -6 ч.

Смотрите также архив погоды в соседних городах и на ближайших метеорологических станциях:

Погода в Tulancingo (Мексика) (140 км)
Погода в Tampico (Мексика) (147 км)
Погода в Matlapa (Мексика) (152 км)
Погода в Jalapa (Мексика) (164 км)
Погода в Pachuca (Мексика) (168 км)
Погода в Tamuin (Мексика) (183 км)
Погода в Tlaxcala (Мексика) (202 км)
Погода в Tlaxcala Airport (Мексика) (202 км)
Погода в Puebla (Мексика) (226 км)
Погода в Cordoba-In-Veracruz (Мексика) (233 км)

Пояснения к столбцам:

Ветер - указаны скорость ветра в м/с - средняя за 10 мин, порывы в срок и между сроками (в фигурных скобках) и направление, откуда дует ветер: С - северный, СВ - северо-восточный, В - восточный, ЮВ - юго-восточный, Ю - южный, ЮЗ - юго-западный, З - западный, СЗ - северо-западный.
Видимость - горизонтальная дальность видимости в метрах или километрах. При видимости от 1 до 10 км при отсутствии осадков обычно наблюдается дымка, при ухудшении видимости до 1 км и менее - туман. В сухую погоду видимость может ухудшаться дымом, пылью или мглою.
Явления - указаны атмосферные явления, наблюдавшиеся в срок или в последний час перед сроком; фигурными скобками обозначены явления, наблюдавшиеся между сроками (за 1-3 часа до срока); квадратными скобками обозначены град или гололедные отложения с указанием их диаметра в мм.
Облачность - указаны через наклонную черту общая и нижняя облачность в баллах и высота нижней границы облаков в метрах; квадратными скобками обозначены формы облаков: Ci - перистые, Cs - перисто-слоистые, Cc - перисто-кучевые, Ac - высококучевые, As - высокослоистые, Sc - слоисто-кучевые, Ns - слоисто-дождевые, Cu - кучевые, Cb - кучево-дождевые. Подробнее классификацию облаков см. в Атласе облаков (PDF).
T - Температура воздуха - температура, измеренная на высоте 2 м над землей.
Td - Температура точки росы - температура, при понижении до которой содержащийся в воздухе водяной пар достигнет насыщения.
f - Относительная влажность воздуха - влажноcть воздуха, измеренная на высоте 2 м над землей.
Te - Эффективная температура - температура, которую ощущает одетый по сезону человек в тени. Характеристика душности погоды. При расчете учитывается влияние влажности воздуха и скорости ветра на теплоощущения человека.
Tes - Эффективная температура на солнце - температура, которую ощущает человек, с поправкой на солнечный нагрев. Характеристика знойности погоды. Зависит от высоты солнца над горизонтом, облачности и скорости ветра. Ночью, в пасмурную погоду, а также при ветре 12 м/с и более поправка равна нулю.
P - Атмосферное давление - приведенное к уровню моря атмосферное давление.
Po - Атмосферное давление - измеренное на уровне метеостанции атмосферное давление.
Tmin - Минимальная температура - минимум температуры воздуха на высоте 2 м над землей.
Tmax - Максимальная температура - максимум температуры воздуха на высоте 2 м над землей.
R - Количество осадков - Количество выпавших осадков за период времени, мм. При наведении курсора мыши на число - период времени, за который выпало указанное количество осадков.
R24 - Количество осадков - Количество выпавших осадков за 24 часа, мм.
S - Снежный покров - Высота снежного покрова, см. При наведении курсора мыши на число - состояние снежного покрова и степень покрытия местности в баллах.